EW7414 Weather Reports


Display with metric or nautical units.
time (UTC)temp
F
wind
direction
speed
MPH
gust
MPH
rain 1hr
in
rain 24hr
in
rain mn
in
humidity
%
barometer
mb
20260503201338 60 339 1.0 5.0 0.00 0.00 0.00 35 1013.0
20260503200822 60 320 0.0 0.0 0.00 0.00 0.00 36 1013.0
20260503200325 59 272 0.0 0.0 0.00 0.00 0.00 37 1013.1
20260503195828 59 330 0.0 0.0 0.00 0.00 0.00 36 1013.0
20260503195353 59 28 0.0 0.0 0.00 0.00 0.00 36 1013.1
20260503194815 59 314 0.0 0.0 0.00 0.00 0.00 37 1013.1
20260503194342 58 297 0.0 0.0 0.00 0.00 0.00 37 1013.4
20260503193847 58 255 0.0 0.0 0.00 0.00 0.00 37 1013.3
20260503193328 58 307 0.0 0.0 0.00 0.00 0.00 38 1013.4
20260503192830 57 156 0.0 0.0 0.00 0.00 0.00 39 1013.5
20260503192312 57 313 0.0 0.0 0.00 0.00 0.00 39 1013.5
20260503191824 57 41 0.0 0.0 0.00 0.00 0.00 37 1013.7
20260503191327 57 303 0.0 0.0 0.00 0.00 0.00 39 1013.5
20260503190829 57 262 0.0 0.0 0.00 0.00 0.00 38 1013.6
20260503190314 58 345 0.0 0.0 0.00 0.00 0.00 37 1013.8
20260503185819 58 19 0.0 0.0 0.00 0.00 0.00 37 1013.7
20260503185323 58 360 0.0 0.0 0.00 0.00 0.00 38 1013.8
20260503184825 58 297 0.0 0.0 0.00 0.00 0.00 38 1013.9
20260503184327 58 254 0.0 0.0 0.00 0.00 0.00 38 1013.9
20260503183832 57 262 0.0 0.0 0.00 0.00 0.00 42 1013.8
20260503183316 56 117 0.0 0.0 0.00 0.00 0.00 40 1014.0
20260503182839 56 295 0.0 0.0 0.00 0.00 0.00 39 1014.1
20260503182322 56 336 0.0 0.0 0.00 0.00 0.00 40 1014.0
20260503181828 56 252 0.0 0.0 0.00 0.00 0.00 39 1014.1
20260503181316 56 345 0.0 0.0 0.00 0.00 0.00 38 1014.2
20260503180823 56 214 0.0 0.0 0.00 0.00 0.00 40 1014.1
20260503180329 55 251 0.0 0.0 0.00 0.00 0.00 41 1014.2
20260503175813 55 305 0.0 0.0 0.00 0.00 0.00 40 1014.2
20260503175322 55 249 0.0 0.0 0.00 0.00 0.00 39 1014.3
20260503174824 56 354 0.0 0.0 0.00 0.00 0.00 41 1014.4
20260503174330 56 309 0.0 0.0 0.00 0.00 0.00 41 1014.4
20260503173835 56 295 0.0 0.0 0.00 0.00 0.00 39 1014.3
20260503173318 56 260 0.0 0.0 0.00 0.00 0.00 40 1014.3
20260503172844 56 278 0.0 0.0 0.00 0.00 0.00 39 1014.3
20260503172327 56 209 0.0 10.0 0.00 0.00 0.00 40 1014.3
20260503171853 56 105 2.0 10.0 0.00 0.00 0.00 40 1014.3
20260503171317 55 291 0.0 0.0 0.00 0.00 0.00 42 1014.3
20260503170823 55 290 0.0 6.0 0.00 0.00 0.00 42 1014.4
20260503170327 54 311 1.0 8.0 0.00 0.00 0.00 42 1014.4
20260503150838 49 45 0.0 0.0 0.00 0.00 0.00 50 1015.6
20260503150324 49 34 0.0 8.0 0.00 0.00 0.00 50 1015.5
20260503131316 45 274 0.0 0.0 0.00 0.00 0.00 57 1016.0
20260503130822 45 341 0.0 0.0 0.00 0.00 0.00 57 1016.1
20260503130329 45 250 0.0 0.0 0.00 0.00 0.00 59 1016.0
20260503110349 34 284 0.0 0.0 0.00 0.00 0.00 77 1015.5
20260503090323 36 31 0.0 0.0 0.00 0.00 0.00 72 1014.6
20260503081326 36 316 0.0 0.0 0.00 0.00 0.00 71 1014.4
20260503080852 36 5 0.0 0.0 0.00 0.00 0.00 71 1014.4
20260503080318 36 49 0.0 0.0 0.00 0.00 0.00 71 1014.4
20260503072853 36 305 0.0 0.0 0.00 0.00 0.00 71 1014.2
20260503072318 36 47 0.0 0.0 0.00 0.00 0.00 70 1014.3
20260503071823 36 47 0.0 0.0 0.00 0.00 0.00 70 1014.2
20260503071326 36 47 0.0 0.0 0.00 0.00 0.00 71 1014.1
20260503070813 36 115 0.0 0.0 0.00 0.00 0.00 71 1014.2
20260503070340 36 27 0.0 0.0 0.00 0.00 0.00 70 1014.1
20260503060324 36 316 0.0 0.0 0.00 0.00 0.00 70 1014.2
20260503054816 37 2 0.0 0.0 0.00 0.01 0.00 70 1014.3
20260503054322 37 220 0.0 0.0 0.00 0.01 0.00 69 1014.3
20260503053848 37 220 0.0 0.0 0.00 0.01 0.00 68 1014.2
20260503053347 37 220 0.0 0.0 0.00 0.01 0.00 68 1014.4
20260503052829 38 220 0.0 0.0 0.00 0.01 0.00 68 1014.3
20260503052315 38 220 0.0 0.0 0.00 0.01 0.00 69 1014.3
20260503051822 38 220 0.0 0.0 0.00 0.01 0.00 69 1014.4
20260503051325 38 219 0.0 0.0 0.00 0.01 0.00 69 1014.4
20260503050849 38 219 0.0 0.0 0.00 0.01 0.00 70 1014.4
20260503050312 37 288 0.0 0.0 0.00 0.01 0.00 70 1014.5
20260503045816 37 3 0.0 0.0 0.00 0.06 0.00 70 1014.4
20260503045321 38 3 0.0 0.0 0.00 0.06 0.00 70 1014.5
20260503044827 38 3 0.0 0.0 0.00 0.06 0.00 69 1014.4
20260503044330 38 3 0.0 0.0 0.00 0.06 0.00 69 1014.5
20260503043815 38 3 0.0 0.0 0.00 0.06 0.00 69 1014.4
20260503043324 38 3 0.0 0.0 0.00 0.06 0.00 69 1014.4
20260503042831 38 3 0.0 0.0 0.00 0.06 0.00 68 1014.4
20260503042315 39 3 0.0 0.0 0.00 0.06 0.00 67 1014.5
20260503041822 39 3 0.0 0.0 0.00 0.06 0.00 67 1014.6
20260503041328 39 3 0.0 0.0 0.00 0.06 0.00 66 1014.5
20260503040831 39 3 0.0 0.0 0.00 0.06 0.00 66 1014.5
20260503040336 40 3 0.0 0.0 0.00 0.06 0.00 65 1014.5
20260503035820 40 3 0.0 0.0 0.00 0.08 0.06 65 1014.5
20260503035326 40 3 0.0 0.0 0.00 0.08 0.06 65 1014.5
20260503034829 40 3 0.0 0.0 0.00 0.08 0.06 65 1014.6
20260503034332 40 292 0.0 0.0 0.00 0.08 0.06 65 1014.7
20260503033822 40 292 0.0 0.0 0.00 0.08 0.06 65 1014.6
20260503033327 40 292 0.0 0.0 0.00 0.08 0.06 65 1014.7
20260503032830 40 27 0.0 0.0 0.00 0.08 0.06 65 1014.7
20260503032354 40 320 0.0 0.0 0.00 0.08 0.06 66 1014.8
20260503031815 41 321 0.0 0.0 0.00 0.08 0.06 67 1014.8
20260503031318 41 320 0.0 0.0 0.00 0.08 0.06 67 1014.8
20260503030824 41 13 0.0 0.0 0.00 0.08 0.06 67 1015.0
20260503030327 41 226 0.0 0.0 0.00 0.08 0.06 67 1014.9
20260503025831 41 287 0.0 0.0 0.00 0.08 0.06 68 1014.7
20260503025316 41 288 0.0 0.0 0.00 0.08 0.06 68 1014.7
20260503024821 41 342 0.0 0.0 0.00 0.08 0.06 68 1014.8
20260503024324 41 16 0.0 0.0 0.00 0.08 0.06 69 1014.9
20260503023827 41 231 0.0 0.0 0.00 0.08 0.06 69 1015.0
20260503023313 41 231 0.0 0.0 0.00 0.08 0.06 70 1014.9
20260503022840 41 231 0.0 0.0 0.00 0.08 0.06 71 1014.8
20260503022323 41 49 0.0 0.0 0.00 0.08 0.06 72 1014.8
20260503021829 41 49 0.0 0.0 0.00 0.08 0.06 72 1014.9
20260503021316 41 226 0.0 0.0 0.00 0.08 0.06 73 1015.0
20260503020820 41 320 0.0 0.0 0.00 0.08 0.06 73 1014.9
20260503020327 41 336 0.0 0.0 0.00 0.08 0.06 73 1014.8
20260503015829 41 217 0.0 0.0 0.00 0.08 0.06 73 1014.8
20260503015334 41 226 0.0 0.0 0.00 0.08 0.06 73 1014.7
20260503014819 41 226 0.0 0.0 0.00 0.08 0.06 74 1014.7
20260503014320 41 226 0.0 0.0 0.00 0.08 0.06 74 1014.7
20260503013823 41 226 0.0 0.0 0.00 0.08 0.06 74 1014.6
20260503013328 41 226 0.0 0.0 0.00 0.08 0.06 74 1014.6
20260503012834 41 226 0.0 0.0 0.00 0.08 0.06 74 1014.7
20260503012317 41 228 0.0 0.0 0.00 0.08 0.06 74 1014.6
20260503011821 41 224 0.0 0.0 0.00 0.08 0.06 74 1014.4
20260503011330 42 227 0.0 0.0 0.00 0.08 0.06 74 1014.5
20260503010814 42 208 0.0 0.0 0.00 0.08 0.06 73 1014.5
20260503010322 42 228 0.0 0.0 0.00 0.08 0.06 73 1014.4
20260503005827 42 276 0.0 0.0 0.00 0.10 0.06 73 1014.5
20260503005329 42 230 0.0 0.0 0.00 0.10 0.06 73 1014.4
20260503004813 42 233 0.0 0.0 0.00 0.10 0.06 73 1014.3
20260503004320 42 304 0.0 0.0 0.00 0.10 0.06 73 1014.3
20260503003846 42 275 0.0 0.0 0.00 0.10 0.06 72 1014.1
20260503003327 42 246 0.0 0.0 0.00 0.10 0.06 72 1014.2
20260503002831 42 248 0.0 0.0 0.00 0.10 0.06 73 1014.1
20260503002332 42 218 0.0 0.0 0.00 0.10 0.06 72 1014.1
20260503001832 42 262 0.0 0.0 0.00 0.10 0.06 72 1014.1
20260503001318 42 228 0.0 0.0 0.00 0.10 0.06 73 1014.0
20260503000826 42 235 0.0 0.0 0.00 0.10 0.06 73 1014.1
20260503000349 42 134 0.0 0.0 0.00 0.10 0.06 73 1014.1
20260502235814 42 244 0.0 0.0 0.00 0.11 0.06 72 1014.2
20260502235322 42 244 0.0 0.0 0.00 0.11 0.06 73 1014.1
20260502234847 42 244 0.0 0.0 0.00 0.11 0.06 72 1014.1
20260502234329 43 279 0.0 0.0 0.00 0.11 0.06 73 1014.1
20260502233834 43 267 0.0 0.0 0.00 0.11 0.06 73 1014.0
20260502233317 43 267 0.0 0.0 0.00 0.11 0.06 72 1014.0
20260502232843 43 267 0.0 0.0 0.00 0.11 0.06 72 1014.0
20260502232326 43 24 0.0 0.0 0.00 0.11 0.06 72 1014.0
20260502231830 43 25 0.0 0.0 0.00 0.11 0.06 72 1013.9
20260502231353 43 48 0.0 0.0 0.00 0.11 0.06 72 1013.8
20260502230818 44 6 0.0 0.0 0.00 0.11 0.06 71 1013.9
20260502230321 44 1 0.0 0.0 0.00 0.11 0.06 71 1013.9
20260502225831 44 358 0.0 0.0 0.00 0.11 0.06 71 1013.9
20260502225316 44 260 0.0 0.0 0.00 0.11 0.06 70 1013.9
20260502224844 44 242 0.0 0.0 0.00 0.11 0.06 69 1013.8
20260502224329 44 220 0.0 0.0 0.00 0.11 0.06 69 1013.7
20260502223813 45 281 0.0 0.0 0.00 0.11 0.06 68 1013.7
20260502223317 45 14 0.0 0.0 0.00 0.11 0.06 68 1013.8
20260502222820 45 22 0.0 0.0 0.00 0.11 0.06 67 1013.7
20260502222324 45 285 0.0 0.0 0.00 0.11 0.06 67 1013.7
20260502221826 45 302 0.0 0.0 0.00 0.11 0.06 69 1013.7
20260502221329 45 355 0.0 0.0 0.00 0.11 0.06 70 1013.6
20260502220834 45 342 0.0 0.0 0.00 0.11 0.06 70 1013.6
20260502220319 45 6 0.0 0.0 0.00 0.11 0.06 71 1013.4
20260502215827 45 285 0.0 0.0 0.00 0.12 0.06 70 1013.7
20260502215331 45 102 0.0 0.0 0.00 0.12 0.06 71 1013.6
20260502214816 45 287 0.0 0.0 0.00 0.12 0.06 70 1013.7
20260502214323 45 287 0.0 0.0 0.00 0.12 0.06 71 1013.7
20260502213848 44 345 0.0 0.0 0.00 0.12 0.06 70 1013.7
20260502213330 44 11 0.0 0.0 0.00 0.12 0.06 70 1013.7
20260502212835 45 39 0.0 0.0 0.00 0.12 0.06 71 1013.6
20260502212319 45 1 0.0 0.0 0.00 0.12 0.06 70 1013.6
20260502211825 45 301 0.0 0.0 0.00 0.12 0.06 71 1013.7
20260502211330 45 12 0.0 0.0 0.00 0.12 0.06 71 1013.6
20260502210834 44 293 0.0 0.0 0.00 0.12 0.06 72 1013.5
20260502210333 44 293 0.0 0.0 0.00 0.12 0.06 72 1013.5
20260502205816 44 311 0.0 0.0 0.00 0.17 0.06 72 1013.5
20260502205319 44 78 0.0 0.0 0.00 0.17 0.06 72 1013.5
20260502204824 44 78 0.0 0.0 0.00 0.17 0.06 72 1013.7
20260502204330 44 326 0.0 0.0 0.00 0.17 0.06 71 1013.7
20260502203815 44 345 0.0 0.0 0.00 0.17 0.06 70 1013.7
20260502203323 45 56 0.0 0.0 0.00 0.17 0.06 70 1013.7
20260502202847 45 18 0.0 0.0 0.00 0.17 0.06 70 1013.6
20260502202344 45 325 0.0 0.0 0.00 0.17 0.06 70 1013.5
20260502201828 45 290 0.0 0.0 0.00 0.17 0.06 70 1013.7